AirNav   Air Wisconsin Up To $57,000 Bonus
 
 1167 users online  

61J Portland Downtown Heliport
Portland, Oregon, USA

GOING TO PORTLAND?


FAA INFORMATION EFFECTIVE 26 JANUARY 2023

Location

FAA Identifier: 61J
Lat/Long: 45-31-31.0000N 122-40-15.3440W
45-31.516667N 122-40.255733W
45.5252778,-122.6709289
(estimated)
Elevation: 78 ft. / 23.8 m (surveyed)
Variation: 18E (2000)
Time zone: UTC -8 (UTC -7 during Daylight Saving Time)
Zip code: 97209

Heliport Operations

Heliport use: Open to the public
Activation date: 07/1989
Control tower: no
ARTCC: SEATTLE CENTER
FSS: MC MINNVILLE FLIGHT SERVICE STATION
NOTAMs facility: MMV (NOTAM-D service available)
Attendance: UNATNDD
Wind indicator: lighted
Segmented circle: no
Lights: FOR HELIPORT PLASI WHEN APPROACHING FLT APCH & TKOF 020 - ACTVT CTAF 3 TIMES; WHEN APPROACHING FLIGHT APCH & TKOF 025 - ACTVT CTAF 5 TIMES; WHEN APPROACHING FLT APCH & TKOF 030 - ACTVT CTAF 7 TIMES.
Beacon: white-green-yellow (heliport)
Operates sunset to sunrise.
Landing fee: yes

Heliport Communications

CTAF/UNICOM: 123.075
WX ASOS at PDX (5 nm NE): PHONE (503) 493-7687
WX ASOS at VUO (6 nm N): 135.125 (360-696-1280)
WX ASOS at TTD (11 nm E): 135.625 (503-492-2887)
WX ASOS at HIO (12 nm W): PHONE 503-615-4314
WX ASOS at SPB (17 nm NW): 135.875 (503-543-6401)
WX ASOS at UAO (17 nm S): PHONE 503-678-3011

Nearby radio navigation aids

VOR radial/distance  VOR name  Freq  Var
BTGr173/13.8BATTLE GROUND VORTAC116.6021E
UBGr030/16.5NEWBERG VOR/DME117.4021E

 
NDB name  Hdg/Dist  Freq  Var  ID
BANKS096/17.035616EPND .--. -. -..

Heliport Services

Airframe service: NONE
Powerplant service: NONE

Runway Information

Helipad H1

Dimensions: 80 x 80 ft. / 24 x 24 m
Surface: concrete, in good condition
Weight bearing capacity: 
Single wheel: 25.0
Runway edge lights: PERI
YELLOW PERIMETER LGTS; BLUE CNTRLN TWY LGTS TO HELIPADS.
Operational restrictions: SINGLE HELIPORT WITH 4 FLIGHT APCHS 162/220/248/295 & TKOF DIRECTIONS 342/040/068/115.
Traffic pattern: leftleft
Markings: basic, in good condition
Approach lights: ARROW LGTS FOR FLIGHT APCH 220/248/295 & TKOF 040/068/115.

Heliport Ownership and Management from official FAA records

Ownership: Publicly-owned
Owner: CITY OF PORTLAND-BUREAU OF TRANSPT
1120 SW 5 TH AVE, SUITE 800
PORTLAND, OR 97204
Phone 503-823-5252
Manager: PORTLAND BUREAU OF TRANSPORTATION
1120 SW 5TH AVE, SUITE 800
PORTLAND, OR 97204
Phone 503-823-7527

Heliport Operational Statistics

Aircraft operations: avg 99/week *
59% transient general aviation
39% air taxi
2% military
* for 12-month period ending 17 July 2020

Additional Remarks

A52-H1 FLT APCH & TKOF 16 APCH 200 FT BRIDGE 950 FT FROM HELIPAD 280 FT L; FLT APCH & TKOF 20 APCH 225 FT LGTD BLDG 2100 FT FROM HELIPAD 300 FT L; FLT APCH & TKOF 25 APCH 375 FT LGTD BLDG 3600 FT FROM HELIPAD 350 FT R; & FLT APCH & TKOF 30 APCH 115 FT BRIDGE 930 FT FROM HELIPAD ACROSS APCH PATH.
+199 FT RADIO TOWER (LIGHTED) 4950 FT E OF HELIPORT IN FLT APCH & TKOF 025.
FOR CD CTC PORTLAND APCH AT 503-493-7545.

Instrument Procedures

There are no published instrument procedures at 61J.

Some nearby airports with instrument procedures:

KPDX - Portland International Airport (5 nm NE)
KVUO - Pearson Field Airport (6 nm N)
KTTD - Portland-Troutdale Airport (11 nm E)
KHIO - Portland-Hillsboro Airport (12 nm W)
KSPB - Scappoose Airport (17 nm NW)
KUAO - Aurora State Airport (17 nm S)
 
Loc | Ops | Rwys | IFR | FBO | Links
Com | Nav | Svcs | Stats | Notes
Area around 61J (Portland Downtown Heliport)
 
Road maps at: MapQuest Bing Google
 
Aerial photo
WARNING: Photo may not be current or correct
Aerial photo of 61J (Portland Downtown Heliport)
Photo taken 01-Aug-2018
looking west.

Do you have a better or more recent aerial photo of Portland Downtown Heliport that you would like to share? If so, please send us your photo.

 
Sectional chart

 
Airport distance calculator
Flying to Portland Downtown Heliport? Find the distance to fly.

From to 61J

Sunrise and sunset
Times for 06-Feb-2023
 Local
(UTC-8)
 Zulu
(UTC)
Morning civil twilight06:5514:55
Sunrise07:2615:26
Sunset17:2301:23
Evening civil twilight17:5401:54

Current date and time
Zulu (UTC)  07-Feb-2023 01:29:44
Local (UTC-8)  06-Feb-2023 17:29:44
 
METAR
KPDX 
5nm NE 
070053Z 19008KT 10SM FEW033 BKN045 OVC060 09/05 A3046 RMK AO2 SLP315 T00940050
KVUO 
6nm N 
070053Z AUTO VRB04KT 10SM FEW025 BKN033 OVC050 09/06 A3047 RMK AO2 SLP319 T00940056
KTTD 
11nm E 
070053Z 21009KT 10SM OVC055 10/05 A3046 RMK AO2 SLP315 T01000050
KHIO 
12nm W 
070053Z 17011KT 10SM BKN020 BKN040 OVC050 08/06 A3044 RMK AO2 SLP309 T00830061
KSPB 
17nm NW 
070053Z AUTO 15003KT 6SM -RA BR OVC018 09/07 A3043 RMK AO2 SLP305 P0000 T00890067
KUAO 
17nm S 
070053Z 20007G16KT 10SM BKN025 BKN029 OVC050 09/04 A3046 RMK AO2 SLP315 T00940044
TAF
KPDX 
5nm NE 
062023Z 0620/0718 20012G18KT P6SM FEW040 BKN050 OVC070 FM070300 15005KT P6SM OVC035 FM070600 15007KT P6SM OVC040 PROB30 0706/0710 4SM -RA BR OVC035 FM071000 15008KT P6SM OVC035 PROB30 0710/0712 4SM -RA BR OVC025 FM071600 18013G25KT P6SM -RA OVC035
KTTD 
11nm E 
061720Z 0618/0718 19006KT P6SM BKN035 FM062100 21010G18KT P6SM OVC029 FM062300 21009KT P6SM OVC035 FM070000 VRB03KT P6SM BKN026 PROB30 0706/0712 4SM -RA BR OVC025 FM071700 16011G24KT P6SM -RA OVC028
KHIO 
12nm W 
061720Z 0618/0718 19008KT P6SM BKN035 FM070300 17008KT P6SM OVC035 PROB30 0706/0710 4SM -RA BR OVC025 FM071000 17009KT P6SM OVC030 PROB30 0710/0712 4SM -RA BR OVC020 FM071600 18013G25KT P6SM -RA OVC030
KUAO 
17nm S 
061720Z 0618/0718 20010KT P6SM BKN040 BKN050 OVC070 FM062300 19010KT P6SM BKN035 FM070600 18008KT P6SM SCT040 OVC070 PROB30 0709/0712 4SM -RA BR OVC025 FM071500 19017G28KT P6SM -RA OVC030
NOTAMs
Click for the latest NOTAMs
NOTAMs are issued by the DoD/FAA and will open in a separate window not controlled by AirNav.

 

 
 

Would you like to see your business listed on this page?

 If your business provides an interesting product or service to pilots, flight crews, aircraft, or users of the Portland Downtown Heliport, you should consider listing it here.  To start the listing process, click on the button below
 
Add a business
 

Other Pages about Portland Downtown Heliport

Update a link
 
Copyright © AirNav, LLC. All rights reserved. Privacy Policy  Contact